TimeEDT,TemperatureF,Dew PointF,Humidity,Sea Level PressureIn,VisibilityMPH,Wind Direction,Wind SpeedMPH,Gust SpeedMPH,PrecipitationIn,Events,Conditions,WindDirDegrees,DateUTC
12:23 AM,48.2,42.8,82,29.78,10.0,WSW,11.5,-,N/A,,Mostly Cloudy,240,2012-10-21 04:23:00
12:54 AM,48.0,43.0,83,29.80,10.0,WSW,12.7,-,N/A,,Mostly Cloudy,240,2012-10-21 04:54:00
1:54 AM,48.0,42.1,80,29.82,10.0,WSW,10.4,-,N/A,,Mostly Cloudy,250,2012-10-21 05:54:00
2:54 AM,46.9,43.0,86,29.85,10.0,WSW,11.5,-,N/A,,Mostly Cloudy,250,2012-10-21 06:54:00
3:54 AM,48.0,43.0,83,29.87,10.0,West,11.5,-,N/A,,Scattered Clouds,260,2012-10-21 07:54:00
4:54 AM,48.0,44.1,86,29.90,10.0,West,8.1,-,N/A,,Scattered Clouds,260,2012-10-21 08:54:00
5:54 AM,46.0,43.0,89,29.92,10.0,WSW,6.9,-,N/A,,Scattered Clouds,240,2012-10-21 09:54:00
6:54 AM,44.1,42.1,93,29.94,10.0,SW,6.9,-,N/A,,Scattered Clouds,230,2012-10-21 10:54:00
7:54 AM,45.0,43.0,93,29.95,10.0,WSW,9.2,-,N/A,,Partly Cloudy,240,2012-10-21 11:54:00
8:54 AM,48.9,44.1,83,29.96,10.0,WSW,10.4,-,N/A,,Partly Cloudy,240,2012-10-21 12:54:00
9:54 AM,53.1,43.0,69,29.97,10.0,WSW,16.1,-,N/A,,Partly Cloudy,250,2012-10-21 13:54:00
10:54 AM,57.0,43.0,59,29.98,10.0,WSW,17.3,24.2,N/A,,Partly Cloudy,250,2012-10-21 14:54:00
11:54 AM,59.0,42.1,53,29.98,10.0,West,19.6,24.2,N/A,,Partly Cloudy,270,2012-10-21 15:54:00
12:54 PM,60.1,41.0,49,29.98,10.0,West,13.8,25.3,N/A,,Mostly Cloudy,280,2012-10-21 16:54:00
1:54 PM,62.1,39.9,44,29.97,10.0,West,19.6,27.6,N/A,,Mostly Cloudy,280,2012-10-21 17:54:00
2:54 PM,61.0,37.0,41,29.98,10.0,West,18.4,29.9,N/A,,Mostly Cloudy,270,2012-10-21 18:54:00
3:54 PM,61.0,42.1,50,29.99,10.0,West,17.3,25.3,N/A,,Scattered Clouds,270,2012-10-21 19:54:00
4:54 PM,57.9,43.0,58,30.00,10.0,West,13.8,23.0,N/A,,Scattered Clouds,260,2012-10-21 20:54:00
5:54 PM,55.9,44.1,64,30.02,10.0,WSW,12.7,-,N/A,,Scattered Clouds,250,2012-10-21 21:54:00
6:54 PM,54.0,45.0,72,30.04,10.0,WSW,10.4,-,N/A,,Scattered Clouds,250,2012-10-21 22:54:00
7:54 PM,52.0,46.0,80,30.06,10.0,WSW,10.4,-,N/A,,Partly Cloudy,250,2012-10-21 23:54:00
8:54 PM,51.1,45.0,80,30.07,10.0,WSW,10.4,-,N/A,,Scattered Clouds,240,2012-10-22 00:54:00
9:54 PM,50.0,46.0,86,30.07,10.0,WSW,8.1,-,N/A,,Scattered Clouds,250,2012-10-22 01:54:00
10:54 PM,50.0,46.0,86,30.08,10.0,West,6.9,-,N/A,,Scattered Clouds,260,2012-10-22 02:54:00
11:54 PM,50.0,46.0,86,30.08,10.0,West,10.4,-,N/A,,Scattered Clouds,260,2012-10-22 03:54:00